Regional Weather Roundup
Issued by NWS Northern Indiana

Home | Current Version | Previous Version | Graphics & Text | Print | Product List | Glossary On
Versions: 1 2 3 4 5 6 7 8 9 10 11 12 13 14 15 16 17 18 19 20 21 22 23 24 25 26 27 28 29 30 31 32 33 34 35 36 37 38 39 40 41 42 43 44 45 46 47 48 49 50
000
ASUS43 KIWX 190101
RWRIWX

KIWX WEATHER ROUNDUP
NATIONAL WEATHER SERVICE NORTHERN INDIANA
900 PM EDT WED OCT 18 2017

NOTE: "FAIR" INDICATES FEW OR NO CLOUDS BELOW 12,000 FEET WITH NO
SIGNIFICANT WEATHER AND/OR OBSTRUCTIONS TO VISIBILITY.

* THESE STATIONS ARE NOT UNDER NWS QUALITY CONTROL. THEY ALSO MAY NOT
  REPORT WEATHER SUCH AS PRECIPITATION OR FOG.

INZ001>027-190200-
NORTHERN INDIANA

CITY           SKY/WX    TMP DP  RH WIND       PRES   REMARKS
GARY*          CLEAR     64  37  36 S8        30.07R
MICHIGAN CITY* CLEAR     61  41  48 S8        30.08R
KNOX*          CLEAR     57  41  54 S9        30.09S
SOUTH BEND     CLEAR     57  42  57 S9        30.10R
ELKHART*       CLEAR     59  39  47 S6        30.09S
GOSHEN         CLEAR     59  40  49 S9        30.10S
MONTICELLO*    CLEAR     59  42  54 S6        30.11F
WARSAW*        CLEAR     59  43  55 CALM      30.11F
AUBURN*        CLEAR     57  37  47 S5        30.13S
FORT WAYNE     CLEAR     53  40  61 S9        30.14S
PERU/GRISSOM   CLEAR     52  44  73 S9        30.13S

$$
INZ028>050-190200-
CENTRAL INDIANA

CITY           SKY/WX    TMP DP  RH WIND       PRES   REMARKS
LAFAYETTE      CLEAR     58  45  62 S5        30.12S
KOKOMO*        CLEAR     56  44  64 S8        30.15R
MUNCIE*        CLEAR     60  43  53 S7        30.16R
INDIANAPOLIS   CLEAR     59  44  57 S10       30.17R

$$
MIZ043>046-050>051-056>058-064>065-071>073-077>080-190200-
SOUTHWEST LOWER MICHIGAN

CITY           SKY/WX    TMP DP  RH WIND       PRES   REMARKS
BATTLE CREEK   CLEAR     59  40  49 S13       30.08S
BENTON HARBOR  CLEAR     59  39  47 S5        30.07R
COLDWATER*     CLEAR     58  35  41 S6        30.10S
HILLSDALE*     CLEAR     55  37  50 S8        30.11R
HOLLAND        CLEAR     58  41  53 S9        30.04S
GRAND RAPIDS   PTCLDY    59  41  51 S8        30.05R
KALAMAZOO      CLEAR     57  40  52 S8        30.08S
STURGIS*       CLEAR     58  41  54 S9        30.09F
THREE RIVERS*  FAIR      58  43  57 S8        30.09S

$$
OHZ001>008-015>018-024>025-190200-
NORTHWEST OHIO

CITY           SKY/WX    TMP DP  RH WIND       PRES   REMARKS
DEFIANCE       CLEAR     56  40  55 S7        30.13S
FINDLAY        CLEAR     52  39  61 S9        30.15S
TOLEDO EXPRESS CLEAR     59  43  55 S7        30.13S
TOLEDO METCALF CLEAR     59  40  49 S9        30.14F
LIMA           CLEAR     56  42  59 S8        30.16F

$$
AND FOR LAKE MICHIGAN COASTAL AND OPEN LAKE BUOY OBSERVATIONS

STATION/POSITION TEMP    WIND        PRES    VSBY  WAVE
                 AIR SEA DIR/SP/G                  HT/PER
                 (F)     (DEG/KT/KT) (MB)    (MI)  (FT/S)
CALUMET HARBOR    65     200/  8/ 13 1017.1R
MICHIGAN CITY     63     170/ 10/ 13   N/A
BURNS HARBOR      63     190/ 11/ 15 1018.6R
SAINT JOSEPH      63     190/  4/  9 1018.6
SOUTH LAKE BUOY   64 61  210/ 19/ 21 1016.2          4/ 4
4 MI NW BRIDGMAN  62 58  200/ 12/ 14 1018.5R         2/ 4
MICHIGAN CITY     62 58  200/ 12/ 16   N/A           2/ 3

$$
&&




USA.gov is the U.S. government's official web portal to all federal, state and local government web resources and services.